Starlink 30955

operational
NORAD ID: 58417 Int'l Des: 2023-180 Owner: SPXS Country: US Constellation: starlink
LEOCIRCULAR

About Starlink 30955

Description loading...

Live Position

Loading 3D Globe...

Upcoming Passes

Altitude History

Altitude vs Time

uPlot chart will show altitude changes over time

Two-Line Element Set

1 58417U 23180R 25300.04303719 -.00000765 00000-0 -41555-4 0 9990
2 58417 43.0025 61.9981 0001448 268.5059 91.5617 15.02540234107482
Epoch: Oct 27, 2025 • Age: 23 hours

Current Status

Altitude 559.8 km
Velocity 7.59 km/s
Sub-Earth Point 26.06°N, 168.92°E
Launch Date Nov 22, 2023
Age 1.9 years
Type internet

Technical Details

Classification Payload
Mass 730.00 kg
Dry Mass 700.00 kg
Total Mass 730.00 kg
Length 0.30 m
Diameter 4.10 m
Span 29.00 m
Shape Box + pan
Manufacturer SPXS
Bus Type Starlink V2M
Phase Status In Orbit
Owner/State SPXS/US

Large Constellations

Loading constellations...